Weather History for KD50 - December, 2012

Change the Weather History Date:

Wednesday, December 19, 2012

  Actual Average (KISN) Record (KISN)
Temperature  
Mean Temperature 8 °F 13 °F  
Max Temperature 19 °F 23 °F 51 °F (2004)
Min Temperature -2 °F 2 °F -40 °F (1983)
Degree Days  
Heating Degree Days 56 52  
Month to date heating degree days 942  
Since 1 July heating degree days 3104  
Cooling Degree Days 0 0  
Month to date cooling degree days 0  
Year to date cooling degree days 456  
Moisture  
Dew Point 5 °F    
Average Humidity 85    
Maximum Humidity 100    
Minimum Humidity 73    
Precipitation  
Precipitation 1.25 in 0.02 in 0.16 in (1958)
Month to date precipitation 0.37  
Year to date precipitation 14.12  
Sea Level Pressure  
Sea Level Pressure 29.91 in    
Wind  
Wind Speed 14 mph (WNW)    
Max Wind Speed 23 mph    
Max Gust Speed 31 mph    
Visibility 8 miles    
Events Snow    
T = Trace of Precipitation, MM = Missing Value Source: NWS Daily Summary

Daily Weather History Graph

Daily Weather History Graph

Search for Another Location

Airport or City:

Trip Planner

Search our weather history database for the weather conditions in past years. The results will help you decide how hot, cold, wet, or windy it might be!

Date:

Astronomy

Dec. 19, 2012 Rise Set
Actual Time 8:43 AM CST 4:57 PM CST
Civil Twilight 8:06 AM CST 5:35 PM CST
Nautical Twilight 7:25 AM CST 6:15 PM CST
Astronomical Twilight 6:46 AM CST 6:54 PM CST
Moon 12:19 PM CST (12/19) No Moon Set
Length of Visible Light 9h 29m
Length of Day
8h 14m
Waxing Crescent, 45% of the Moon is Illuminated
Dec 19
Waxing Crescent
Dec 19
First Quarter
Dec 28
Full
Jan 4
Last Quarter
Jan 11
New

Hourly Weather History & Observations

Time (CST) Temp. Windchill Dew Point Humidity Pressure Visibility Wind Dir Wind Speed Gust Speed Precip Events Conditions
12:15 AM 19.4 °F 4.5 °F 19.4 °F 100% 29.64 in 2.5 mi NW 17.3 mph - 0.02 in Snow Light Snow
12:35 AM 17.6 °F 3.2 °F 17.6 °F 100% 29.66 in 5.0 mi NW 15.0 mph - 0.03 in Snow Light Snow
12:55 AM 17.6 °F 3.2 °F 15.8 °F 93% 29.66 in 10.0 mi NW 15.0 mph - 0.03 in   Overcast
1:15 AM 17.6 °F 2.2 °F 15.8 °F 93% 29.67 in 10.0 mi NW 17.3 mph - N/A   Overcast
1:35 AM 15.8 °F 0.9 °F 15.8 °F 100% 29.68 in 10.0 mi NW 15.0 mph 20.7 mph N/A   Overcast
1:55 AM 15.8 °F 0.9 °F 14.0 °F 93% 29.69 in 10.0 mi NW 15.0 mph 23.0 mph N/A Snow Light Snow
2:15 AM 15.8 °F -0.2 °F 14.0 °F 93% 29.70 in 2.5 mi NW 17.3 mph - 0.09 in Snow Light Snow
2:35 AM 14.0 °F -2.5 °F 12.2 °F 93% 29.71 in 5.0 mi NW 17.3 mph 23.0 mph 0.19 in Snow Light Snow
2:55 AM 14.0 °F -3.9 °F 10.4 °F 86% 29.71 in 3.0 mi NW 20.7 mph 25.3 mph 0.22 in Snow Light Snow
3:15 AM 12.2 °F -5.8 °F 10.4 °F 92% 29.72 in 3.0 mi NW 19.6 mph 24.2 mph 0.05 in Snow Light Snow
3:35 AM 10.4 °F -8.6 °F 8.6 °F 92% 29.74 in 3.0 mi NW 20.7 mph - 0.15 in Snow Light Snow
3:55 AM 10.4 °F -9.5 °F 6.8 °F 85% 29.75 in 3.0 mi NW 23.0 mph 27.6 mph 0.32 in Snow Light Snow
4:15 AM 10.4 °F -8.2 °F 6.8 °F 85% 29.75 in 7.0 mi NW 19.6 mph 31.1 mph 0.01 in Snow Light Snow
4:35 AM 10.4 °F -8.6 °F 6.8 °F 85% 29.76 in 8.0 mi NW 20.7 mph 26.5 mph 0.02 in Snow Light Snow
4:55 AM 10.4 °F -8.2 °F 6.8 °F 85% 29.77 in 5.0 mi NW 19.6 mph 28.8 mph 0.06 in Snow Light Snow
5:15 AM 8.6 °F -10.0 °F 6.8 °F 92% 29.78 in 5.0 mi NW 18.4 mph - 0.02 in Snow Light Snow
5:35 AM 8.6 °F -10.0 °F 5.0 °F 85% 29.78 in 4.0 mi NW 18.4 mph 25.3 mph 0.07 in Snow Light Snow
5:55 AM 8.6 °F -9.5 °F 5.0 °F 85% 29.80 in 2.5 mi NW 17.3 mph 23.0 mph 0.13 in Snow Light Snow
6:15 AM 8.6 °F -9.5 °F 5.0 °F 85% 29.81 in 1.5 mi NW 17.3 mph 21.9 mph 0.13 in Snow Light Snow
6:35 AM 8.6 °F -10.5 °F 5.0 °F 85% 29.82 in 2.0 mi NW 19.6 mph 23.0 mph 0.25 in Snow Light Snow
6:55 AM 8.6 °F -9.5 °F 5.0 °F 85% 29.82 in 1.8 mi NW 17.3 mph 21.9 mph 0.30 in Snow Light Snow
7:15 AM 8.6 °F -8.9 °F 5.0 °F 85% 29.84 in 2.5 mi NW 16.1 mph 24.2 mph 0.04 in Snow Light Snow
7:35 AM 8.6 °F -8.9 °F 5.0 °F 85% 29.85 in 3.0 mi NW 16.1 mph 21.9 mph 0.08 in Snow Light Snow
7:55 AM 8.6 °F -9.5 °F 5.0 °F 85% 29.86 in 2.0 mi NW 17.3 mph 25.3 mph 0.12 in Snow Light Snow
8:15 AM 8.6 °F -8.3 °F 5.0 °F 85% 29.87 in 2.0 mi NW 15.0 mph 19.6 mph 0.05 in Snow Light Snow
8:35 AM 8.6 °F -7.0 °F 5.0 °F 85% 29.88 in 10.0 mi NW 12.7 mph - 0.06 in Snow Light Snow
8:55 AM 8.6 °F -6.3 °F 5.0 °F 85% 29.88 in 10.0 mi NW 11.5 mph - 0.06 in   Overcast
9:15 AM 8.6 °F -5.5 °F 5.0 °F 85% 29.88 in 10.0 mi NW 10.4 mph - N/A   Overcast
9:35 AM 8.6 °F -6.3 °F 5.0 °F 85% 29.89 in 10.0 mi NW 11.5 mph - N/A   Overcast
9:55 AM 8.6 °F -5.5 °F 5.0 °F 85% 29.91 in 10.0 mi NW 10.4 mph - N/A Snow Light Snow
10:15 AM 8.6 °F -4.7 °F 5.0 °F 85% 29.91 in 9.0 mi NW 9.2 mph - N/A Snow Light Snow
10:35 AM 8.6 °F -5.5 °F 5.0 °F 85% 29.92 in 9.0 mi NW 10.4 mph - 0.01 in Snow Light Snow
10:55 AM 8.6 °F -7.7 °F 5.0 °F 85% 29.93 in 10.0 mi WNW 13.8 mph - 0.01 in Snow Light Snow
11:15 AM 6.8 °F -9.3 °F 3.2 °F 85% 29.94 in 10.0 mi NW 12.7 mph - N/A   Overcast
11:35 AM 6.8 °F -6.9 °F 3.2 °F 85% 29.94 in 10.0 mi WNW 9.2 mph - N/A   Partly Cloudy
11:55 AM 8.6 °F -7.0 °F 3.2 °F 79% 29.95 in 10.0 mi WNW 12.7 mph - N/A   Clear
12:15 PM 8.6 °F -6.3 °F 3.2 °F 79% 29.95 in 10.0 mi WNW 11.5 mph - N/A   Scattered Clouds
12:35 PM 8.6 °F -6.3 °F 5.0 °F 85% 29.95 in 10.0 mi WNW 11.5 mph - N/A   Overcast
12:55 PM 10.4 °F -5.4 °F 5.0 °F 79% 29.95 in 10.0 mi NW 13.8 mph - N/A   Overcast
1:15 PM 10.4 °F -4.8 °F 5.0 °F 79% 29.96 in 10.0 mi WNW 12.7 mph - N/A   Overcast
1:35 PM 10.4 °F -5.4 °F 6.8 °F 85% 29.96 in 10.0 mi WNW 13.8 mph - N/A   Overcast
1:55 PM 12.2 °F -2.5 °F 6.8 °F 79% 29.96 in 10.0 mi NW 12.7 mph - N/A   Overcast
2:15 PM 12.2 °F -0.2 °F 6.8 °F 79% 29.97 in 10.0 mi WNW 9.2 mph - N/A   Overcast
2:35 PM 12.2 °F -1.8 °F 6.8 °F 79% 29.97 in 10.0 mi WNW 11.5 mph - N/A   Overcast
2:55 PM 14.0 °F 1.2 °F 6.8 °F 73% 29.97 in 10.0 mi WNW 10.4 mph - N/A   Overcast
3:15 PM 14.0 °F -0.2 °F 6.8 °F 73% 29.98 in 10.0 mi WNW 12.7 mph - N/A   Overcast
3:35 PM 12.2 °F -1.0 °F 6.8 °F 79% 29.99 in 10.0 mi WNW 10.4 mph - N/A   Overcast
3:55 PM 12.2 °F -0.2 °F 6.8 °F 79% 29.99 in 10.0 mi WNW 9.2 mph - N/A Snow Light Snow
4:15 PM 12.2 °F 0.7 °F 6.8 °F 79% 30.00 in 10.0 mi WNW 8.1 mph - N/A Snow Light Snow
4:35 PM 12.2 °F 1.7 °F 6.8 °F 79% 30.00 in 10.0 mi West 6.9 mph - N/A   Overcast
4:55 PM 12.2 °F 4.3 °F 6.8 °F 79% 30.00 in 10.0 mi WSW 4.6 mph - N/A   Overcast
5:15 PM 12.2 °F 1.7 °F 8.6 °F 85% 30.01 in 10.0 mi West 6.9 mph - N/A   Overcast
5:35 PM 14.0 °F 2.9 °F 8.6 °F 79% 30.02 in 10.0 mi WSW 8.1 mph - N/A   Overcast
5:55 PM 12.2 °F 1.7 °F 8.6 °F 85% 30.02 in 10.0 mi West 6.9 mph - N/A   Overcast
6:15 PM 12.2 °F 1.7 °F 8.6 °F 85% 30.02 in 10.0 mi WSW 6.9 mph - N/A   Overcast
6:35 PM 8.6 °F -3.7 °F 5.0 °F 85% 30.03 in 10.0 mi WSW 8.1 mph - N/A   Mostly Cloudy
6:55 PM 3.2 °F -10.3 °F -0.4 °F 85% 30.04 in 10.0 mi SW 8.1 mph - N/A   Clear
7:15 PM -0.4 °F -14.7 °F -2.2 °F 92% 30.04 in 10.0 mi SW 8.1 mph - N/A   Clear
7:35 PM -0.4 °F -12.0 °F -4.0 °F 85% 30.04 in 10.0 mi SW 5.8 mph - N/A   Clear
7:55 PM -2.2 °F -14.2 °F -4.0 °F 92% 30.05 in 10.0 mi SSW 5.8 mph - N/A   Clear
8:15 PM -2.2 °F -16.8 °F -7.6 °F 78% 30.05 in 10.0 mi SSW 8.1 mph - N/A   Clear
8:35 PM -0.4 °F -16.7 °F -4.0 °F 85% 30.05 in 10.0 mi SSW 10.4 mph - N/A   Clear
8:55 PM -2.2 °F -16.8 °F -4.0 °F 92% 30.04 in - SW 8.1 mph - N/A   Unknown
9:15 PM -0.4 °F -17.6 °F -2.2 °F 92% 30.04 in 10.0 mi SSW 11.5 mph - N/A   Clear
9:35 PM -0.4 °F -15.7 °F -2.2 °F 92% 30.04 in - SSW 9.2 mph - N/A   Unknown
9:55 PM -0.4 °F -16.7 °F -4.0 °F 85% 30.04 in - SSW 10.4 mph - N/A   Unknown
10:15 PM -0.4 °F -17.6 °F -4.0 °F 85% 30.03 in - SSW 11.5 mph - N/A   Unknown
10:35 PM -2.2 °F -18.9 °F -5.8 °F 85% 30.03 in - SSW 10.4 mph - N/A   Unknown
10:55 PM -0.4 °F -16.7 °F -4.0 °F 85% 30.03 in - SSW 10.4 mph - N/A   Unknown
11:15 PM -0.4 °F -14.7 °F -4.0 °F 85% 30.03 in 10.0 mi SSW 8.1 mph - N/A   Clear
11:35 PM -0.4 °F -13.4 °F -4.0 °F 85% 30.04 in 10.0 mi South 6.9 mph - N/A   Unknown
11:55 PM -2.2 °F -10.4 °F -5.8 °F 85% 30.04 in 10.0 mi SSE 3.5 mph - N/A   Clear